This demonstration page uses our WeatherBlox Daily Observations layout. Learn more.

Left ArrowRight Arrow

Hourly Observations for June 8, 2021

Temp ( °F °C ) Dew Point ( °F °C ) Humidity (%) Winds ( mph kmh ) Pressure ( in mb ) Visibility ( mi km ) Precip ( " mm )
12:53 am 00:53 Partly Cloudy 72 22.2 70 21.1 94 94 Calm 30.13 1020 10 16 0.00 0.00
1:08 am 01:08 Mostly Cloudy 72 22.2 70 21.1 94 94 S 5 7 30.12 1020 10 16 0.00 0.00
1:53 am 01:53 Cloudy 72 22.2 70 21.1 94 94 S 5 7 30.13 1020 10 16 0.00 0.00
2:44 am 02:44 Cloudy 73 22.8 70 21.1 90 90 SSE 8 13 30.11 1020 10 16 0.00 0.00
2:53 am 02:53 Cloudy 73 22.8 70 21.1 90 90 SSE 8 13 30.11 1020 10 16 0.00 0.00
3:32 am 03:32 Cloudy 73 22.8 70 21.1 90 90 SSE 5 7 30.10 1019 10 16 0.00 0.00
3:53 am 03:53 Cloudy 73 22.8 70 21.1 90 90 SE 5 7 30.09 1019 10 16 0.00 0.00
4:33 am 04:33 Cloudy 72 22.2 70 21.1 94 94 ESE 3 6 30.09 1019 9 14 0.00 0.00
4:53 am 04:53 Cloudy 72 22.2 70 21.1 94 94 SSE 5 7 30.09 1019 10 16 0.00 0.00
5:53 am 05:53 Cloudy 73 22.8 70 21.1 90 90 SSE 3 6 30.12 1020 10 16 0.00 0.00
5:57 am 05:57 Cloudy 73 22.8 70 21.1 90 90 SE 5 7 30.12 1020 10 16 0.00 0.00
6:53 am 06:53 Cloudy 73 22.8 70 21.1 90 90 Calm 30.14 1021 10 16 0.00 0.00
7:53 am 07:53 Cloudy 74 23.3 70 21.1 88 88 SSE 5 7 30.14 1021 10 16 0.00 0.00
8:53 am 08:53 Cloudy 74 23.3 70 21.1 88 88 S 6 9 30.16 1021 10 16 0.00 0.00
9:01 am 09:01 Cloudy 75 23.9 70 21.1 84 84 SSE 6 9 30.15 1021 10 16 0.00 0.00
12:53 pm 12:53 Cloudy 81 27.2 70 21.1 69 69 Calm 30.16 1022 10 16 0.00 0.00
1:00 pm 13:00 Mostly Cloudy 82 27.8 70 21.1 67 67 VRB 6 9 30.14 1021 10 16 0.00 0.00
1:53 pm 13:53 Mostly Cloudy with Nearby Thunderstorms 83 28.3 69 20.6 63 63 VRB 6 9 30.15 1021 10 16 0.00 0.00
2:11 pm 14:11 Partly Cloudy 84 28.9 69 20.6 61 61 S 6 9 30.12 1020 10 16 0.00 0.00
2:53 pm 14:53 Mostly Sunny 86 30 70 21.1 59 59 W 6 9 30.11 1020 10 16 0.00 0.00
3:53 pm 15:53 Mostly Cloudy 85 29.4 69 20.6 59 59 S 6 9 30.09 1019 10 16 0.00 0.00
4:53 pm 16:53 Cloudy 87 30.6 68 20 53 53 SSE 7 11 30.07 1018 10 16 0.00 0.00
5:53 pm 17:53 Mostly Sunny 78 25.6 67 19.4 69 69 SW 7 11 30.08 1019 10 16 0.00 0.00
6:01 pm 18:01 Partly Cloudy with Nearby Thunderstorms 78 25.6 67 19.4 69 69 SSW 5 7 30.07 1018 10 16 0.00 0.00
6:16 pm 18:16 Sunny 78 25.6 68 20 71 71 W 7 11 30.07 1018 10 16 0.00 0.00
6:53 pm 18:53 Sunny 78 25.6 67 19.4 69 69 WSW 5 7 30.08 1019 10 16 0.00 0.00
7:53 pm 19:53 Mostly Cloudy 78 25.6 69 20.6 74 74 SSW 5 7 30.11 1020 10 16 0.00 0.00
8:24 pm 20:24 Cloudy with Nearby Thunderstorms 74 23.3 66 18.9 76 76 SSW 14 22 30.13 1020 10 16 0.00 0.00
8:48 pm 20:48 Cloudy with Light Rain 73 23 68 20 83 83 S 8 13 30.14 1021 10 16 0.00 0.00
8:53 pm 20:53 Cloudy with Light Rain 73 22.8 67 19.4 81 81 S 6 9 30.14 1021 10 16 0.00 0.00
9:53 pm 21:53 Mostly Clear 72 22.2 67 19.4 84 84 S 6 9 30.16 1021 10 16 0.00 0.00
10:53 pm 22:53 Clear 70 21.1 67 19.4 90 90 NNW 3 6 30.14 1021 10 16 0.00 0.00
11:53 pm 23:53 Partly Cloudy 71 21.7 67 19.4 87 87 NE 3 6 30.15 1021 10 16 0.00 0.00

Powered by AerisWeather